Location: Alafon
(8.4500°N, 4.2333°E)
Time: 16:16:35
(UTC+00:00)

Vanguard 1 Rocket - Pass Details

Date: 31 July 2021
Orbit: 650 x 4226 km, 34.3° (Epoch: 23 September)

Event Time Altitude Azimuth Distance (km) Brightness Sun altitude
Rises 05:07:06 0° 218° (SW) 7,588 11.6 -7.3°
Reaches altitude 10° 05:12:12 10° 213° (SSW) 6,895 11.4 -6.1°
Maximum altitude 05:36:29 51° 142° (SE) 4,800 11.3 -0.4°
Drops below altitude 10° 05:57:44 10° 72° (ENE) 6,246 14.7 4.6°
Sets 06:01:56 0° 68° (ENE) 6,884 14.6 5.6°
